Location: Via Auriletto, 13, 10098 Rivoli TO, Italia
(45.0746°N, 7.5214°E)
Time: 19:04:07
(UTC+02:00)

AIST 2D - Visible Passes

Search period start: 19 May 2019 00:00
Search period end: 29 May 2019 00:00
Orbit: 458 x 471 km, 97.2° (Epoch: 19 May)

Date Brightness Start Highest point End Pass type
(mag) Time Alt. Az. Time Alt. Az. Time Alt. Az.
19 May ? 00:08:45 10° NNE 00:11:03 33° NE 00:11:03 33° NE visible
19 May ? 01:43:11 10° NW 01:44:49 13° WNW 01:45:00 13° WNW visible
19 May ? 23:38:58 10° NE 23:40:22 16° ENE 23:40:22 16° ENE visible
20 May ? 01:11:39 10° N 01:14:20 26° WNW 01:14:20 26° WNW visible
21 May ? 00:40:51 10° N 00:43:39 50° NNW 00:43:39 50° NNW visible
22 May ? 00:10:29 10° NNE 00:12:58 37° NE 00:12:58 37° NE visible
22 May ? 01:45:05 10° NW 01:46:32 12° WNW 01:46:56 12° WNW visible
22 May ? 23:40:38 10° NE 23:42:17 18° ENE 23:42:17 18° ENE visible
23 May ? 01:13:25 10° NNW 01:16:14 25° WNW 01:16:14 25° WNW visible
24 May ? 00:42:36 10° N 00:45:33 53° NNW 00:45:33 53° NNW visible
25 May ? 00:12:11 10° NNE 00:14:51 42° ENE 00:14:51 42° ENE visible
25 May ? 01:46:59 10° NW 01:48:13 12° WNW 01:48:49 11° WNW visible
25 May ? 23:42:17 10° NE 23:44:09 19° ENE 23:44:09 19° ENE visible
26 May ? 01:15:10 10° NNW 01:18:02 24° WNW 01:18:07 24° WNW visible
27 May ? 00:44:18 10° N 00:47:24 55° NW 00:47:24 55° NW visible
28 May ? 00:13:51 10° NNE 00:16:42 46° ENE 00:16:42 46° ENE visible
28 May ? 01:48:51 10° NW 01:49:53 11° WNW 01:50:39 10° WNW visible
28 May ? 23:43:55 10° NE 23:45:59 21° ENE 23:45:59 21° ENE visible
